SCP
0 0 0 0 0 0 0 0 0 0 0 0 0 0 0 0 0 0 0 0 0 0 0 0 0 0 1 1 1 1 1 1 1 0 0 0 0 0 0 0 0 0 0
0 0 0 0 0 0 0 0 0 0 0 0 0 0 0 0 0 0 0 0 0 0 0 0 0 0 0 0 1 1 1 1 1 1 1 1 1 0 0 1 0 0 0
0 0 0 0 0 0 0 0 0 0 0 0 0 0 0 0 0 0 0 0 0 0 0 0 0 0 0 0 0 0 0 0 1 1 1 1 1 1 1 1 1 1 1
0 0 0 0 0 0 0 0 0 0 0 0 0 0 0 0 0 0 0 0 0 0 0 0 0 0 0 0 0 0 0 0 0 0 1 1 1 1 0 0 1 1 1
0 0 0 0 0 0 0 0 0 0 0 0 0 0 0 0 0 0 0 0 0 0 0 0 0 0 0 0 0 0 0 0 0 0 0 1 1 0 0 0 0 0 0
0 0 0 0 0 0 0 0 0 0 0 0 0 0 0 0 0 0 0 0 0 0 0 0 0 0 0 0 0 0 0 0 0 0 0 0 1 0 0 0 0 0 0
0 0 0 0 0 0 0 0 0 0 0 0 0 0 0 0 0 0 0 0 0 0 0 0 0 0 0 0 0 0 0 0 0 0 0 0 0 0 0 1 1 0 0
0 0 0 1 0 0 0 0 0 0 0 0 0 0 0 0 0 0 0 0 0 0 0 0 0 0 0 0 0 0 0 0 0 0 0 0 0 0 0 1 1 1 1
0 0 0 0 0 0 0 0 0 0 0 0 0 1 1 0 0 0 0 0 0 0 0 0 0 0 0 0 0 0 0 0 0 0 0 0 0 0 0 1 1 1 1
0 0 0 0 0 0 0 0 0 0 0 0 0 1 1 0 0 0 0 0 0 0 0 0 0 0 0 0 0 0 0 0 0 0 0 0 0 0 0 1 1 2 2
0 0 0 0 0 0 0 0 0 0 0 0 0 0 0 0 0 0 0 0 0 0 0 0 0 0 0 0 0 0 0 0 0 0 0 0 0 0 0 1 1 1 2
0 0 0 0 0 0 0 0 0 0 0 0 0 0 0 0 0 0 0 0 0 0 0 0 0 0 0 0 0 0 0 0 0 0 0 0 0 0 0 0 1 1 1
0 0 0 0 0 0 0 0 0 0 0 0 0 0 0 0 0 0 0 0 0 0 0 0 0 0 0 0 0 0 0 0 0 0 0 0 0 0 0 0 1 1 1
0 0 0 0 0 0 0 0 0 0 0 0 0 0 0 0 0 0 0 0 0 0 0 0 0 0 0 0 0 0 0 0 0 0 0 0 0 0 0 0 1 1 1
0 0 0 0 0 0 0 0 0 0 0 0 0 0 0 0 0 0 0 0 0 0 0 0 0 0 0 0 0 0 0 0 0 0 0 0 0 0 0 0 1 1 0
0 0 0 0 0 0 0 0 0 0 0 0 0 0 0 0 0 0 0 0 0 0 0 0 0 0 0 0 0 0 0 0 0 0 0 0 0 0 0 0 0 0 0
0 0 0 0 0 0 0 0 0 0 0 0 0 0 0 0 0 0 0 0 0 0 0 0 0 0 0 0 0 0 0 0 0 0 0 0 0 0 0 0 0 0 0
0 0 1 0 0 0 0 0 0 0 0 0 0 0 0 0 0 0 0 0 0 0 0 0 0 0 0 0 0 0 0 0 0 0 0 0 0 0 0 0 0 0 0
0 0 1 1 0 0 0 0 0 0 0 0 0 0 0 0 0 0 0 0 0 0 0 0 0 0 0 0 0 0 0 0 0 0 0 0 0 0 0 0 0 0 0
0 1 1 1 0 0 0 0 0 0 0 0 0 0 0 0 0 0 0 0 0 0 0 0 0 0 0 0 0 0 0 0 0 0 0 0 0 0 0 0 0 0 0
1 1 1 1 1 0 0 0 0 0 0 0 0 0 0 0 0 0 0 0 0 0 0 0 0 0 0 0 0 0 0 0 0 0 0 0 0 0 0 0 0 0 0
1 1 1 1 1 0 0 0 0 0 0 0 0 0 0 0 0 0 0 0 0 0 0 0 0 0 0 0 0 0 0 0 0 0 0 0 0 0 0 0 0 0 0
0 0 0 0 0 0 0 0 0 0 0 0 0 0 0 0 0 0 0 0 0 0 0 0 0 0 0 0 0 0 0 0 0 0 0 0 0 0 0 0 0 0 0
0 0 0 0 0 0 0 0 0 0 0 0 0 0 0 0 0 0 0 0 0 0 0 0 0 0 0 0 0 0 0 0 0 0 0 0 0 0 0 0 0 0 0
0 0 0 0 0 0 0 0 0 0 0 0 0 0 0 0 0 0 0 0 0 0 0 0 0 0 0 0 0 0 0 0 0 0 0 0 0 0 0 0 0 0 0
0 0 0 0 0 0 0 0 0 0 0 0 0 0 0 0 0 0 0 0 0 0 0 0 0 0 0 0 0 0 0 0 0 0 0 0 0 0 0 0 0 0 0
Wind_Speed
1 1 1 2 2 2 2 2 2 2 2 3 3 3 3 3 3 2 3 9 10 9 9 9 9 8 8 8 8 8 8 8 9 9 9 8 8 8 9 9 9 9 9
1 1 1 2 2 2 2 2 2 2 2 2 3 3 3 3 3 3 3 5 8 9 9 9 9 9 9 9 9 8 9 9 10 10 9 9 9 9 9 9 9 9 10
1 1 1 1 1 2 2 1 2 1 1 2 2 2 2 2 2 3 3 3 4 7 9 9 10 10 10 10 10 9 9 10 10 10 10 10 10 10 10 10 10 10 10
1 1 1 1 2 1 1 1 1 1 1 1 2 2 1 1 2 2 2 3 3 3 5 8 9 10 10 10 10 10 10 10 10 11 11 11 11 11 11 11 12 11 11
1 1 1 1 1 1 1 1 1 1 1 1 1 1 1 1 2 2 2 3 3 4 3 5 8 10 10 11 11 11 10 10 10 11 11 11 11 12 12 12 12 12 13
2 1 1 2 1 1 1 1 1 1 1 1 1 1 1 1 1 2 3 3 3 4 4 5 4 5 9 10 11 11 11 11 11 11 11 11 12 12 12 12 12 13 13
1 1 1 2 1 1 1 1 1 1 1 1 1 1 0 0 1 1 2 2 3 4 4 5 4 4 4 8 10 11 11 12 12 12 12 12 12 12 13 13 13 13 14
2 1 1 1 1 1 1 1 1 1 1 1 2 2 2 2 1 1 1 2 3 3 4 5 5 5 4 4 7 10 11 12 12 12 12 13 13 13 13 14 14 14 15
1 1 1 1 1 1 1 1 1 2 1 1 2 2 2 2 2 1 1 1 2 3 3 4 4 5 5 4 5 8 11 12 13 13 13 13 14 14 14 14 15 15 16
2 2 2 1 1 1 1 2 2 2 2 2 1 2 2 2 2 2 1 1 3 3 4 3 4 4 4 4 5 8 10 12 13 14 14 14 15 15 15 15 16 16 16
1 1 2 2 1 1 1 1 1 2 2 2 2 2 2 2 2 3 4 3 3 3 4 4 3 4 4 5 5 8 10 12 13 14 14 15 15 16 16 16 17 17 17
1 1 1 1 1 1 1 1 1 1 1 2 2 2 2 2 2 3 4 5 5 4 5 4 3 4 4 5 6 9 11 12 13 14 14 15 16 16 17 17 17 18 18
1 1 1 1 1 1 1 1 1 1 1 2 2 2 2 3 3 3 4 5 6 5 4 3 3 4 4 5 6 9 10 12 13 14 15 15 16 16 17 17 18 18 18
1 1 1 1 1 1 1 1 1 1 1 2 2 2 2 2 3 3 3 4 5 5 5 6 4 4 5 5 7 11 9 12 13 14 15 16 16 16 17 17 18 18 18
1 1 1 1 1 1 1 1 1 1 1 2 2 2 2 2 3 3 3 4 5 6 7 6 4 5 5 6 8 8 9 11 14 15 16 16 16 17 17 17 18 18 18
1 1 1 1 1 1 1 1 1 1 1 2 2 2 3 3 3 3 3 4 4 6 7 6 6 7 7 6 9 9 9 13 13 14 15 16 16 17 17 17 18 19 19
1 2 1 1 1 1 1 1 1 2 2 2 2 3 3 4 3 3 3 3 4 5 8 8 7 7 9 9 8 8 8 9 8 12 15 16 17 17 17 18 18 19 19
2 2 2 1 1 1 1 2 2 2 2 3 3 3 4 3 4 4 4 4 5 5 7 9 8 8 9 9 9 9 8 8 8 12 14 16 17 17 17 18 18 18 18
2 2 2 2 2 2 2 2 3 3 3 4 4 4 5 4 5 4 5 5 5 5 6 7 9 7 7 7 9 9 9 8 8 9 13 14 15 16 17 17 18 17 17
3 2 3 3 3 3 3 3 3 3 4 4 4 5 5 5 6 6 5 6 5 6 6 7 8 8 7 8 8 8 8 7 8 8 10 11 13 15 16 17 17 16 16
3 3 3 3 3 3 3 3 3 4 4 5 5 5 5 6 7 6 5 5 6 5 6 6 7 8 7 7 7 7 9 8 8 7 8 8 8 8 9 12 13 14 15
3 3 3 4 4 3 3 4 4 4 5 5 5 5 5 5 6 7 8 8 8 7 8 7 7 8 10 9 8 8 8 9 8 5 7 8 7 8 8 7 12 15 16
3 3 3 4 4 4 4 5 6 5 5 5 6 5 5 4 5 6 7 8 8 9 10 9 10 10 10 9 9 10 9 9 10 7 7 9 7 8 7 8 14 16 16
3 3 4 4 4 4 5 6 6 6 6 6 6 6 6 6 5 6 6 7 8 8 9 8 9 10 10 10 9 10 10 11 10 7 6 8 7 8 8 8 12 14 15
3 4 4 4 4 5 4 5 5 4 5 6 6 6 6 6 7 7 7 8 9 8 8 10 12 13 14 14 11 8 8 7 8 6 4 6 7 8 8 8 8 12 14
3 3 3 4 5 5 5 5 5 3 4 5 5 5 6 7 8 9 7 8 9 9 8 8 9 10 10 10 10 8 7 7 7 6 3 4 6 6 7 6 6 7 9
Wind_Direction
30 26 20 8 1 359 354 354 8 15 28 34 37 39 38 36 33 32 39 37 28 25 21 18 15 12 12 13 16 19 20 18 15 11 7 359 353 353 351 350 347 342 339
22 15 17 7 358 349 342 342 359 9 26 34 37 35 36 39 37 28 28 35 35 25 20 18 15 14 13 13 14 14 13 13 13 9 4 359 355 350 345 342 338 338 338
1 356 355 355 342 340 340 348 1 5 23 31 33 31 30 34 38 26 23 17 26 31 23 17 15 12 10 9 10 10 8 7 5 2 357 352 349 348 343 338 334 332 331
348 327 339 331 332 337 344 352 352 2 7 11 10 14 19 30 35 28 26 20 15 16 22 22 16 13 10 7 6 6 4 1 358 355 351 347 342 338 335 334 333 327 323
358 337 325 319 324 330 335 340 341 332 346 8 0 356 358 6 23 31 33 30 25 19 12 23 18 14 9 5 2 0 358 356 353 350 348 345 340 335 330 330 328 327 323
5 349 342 336 336 334 333 322 312 322 322 347 352 2 7 8 26 29 25 27 22 18 13 8 6 7 7 0 355 353 351 347 345 343 341 339 336 334 331 330 328 326 324
2 350 328 332 340 336 317 301 280 282 343 338 299 326 299 162 59 21 13 12 18 12 6 4 3 353 352 355 350 347 345 342 340 338 336 334 332 330 328 325 322 320 319
348 343 326 317 322 299 301 308 311 276 305 310 282 279 267 229 182 323 353 15 6 1 359 359 359 355 343 343 348 347 344 339 336 334 332 330 328 326 324 322 319 319 317
348 341 316 311 328 311 291 287 279 269 277 274 291 281 273 276 320 245 306 339 353 345 337 342 347 345 342 341 337 345 345 339 334 331 330 327 324 321 320 318 317 315 315
344 335 312 307 320 315 305 293 290 277 270 267 272 292 302 310 278 285 261 305 329 320 320 322 323 328 330 328 333 338 339 336 332 329 326 323 319 316 314 313 312 312 312
316 325 325 319 329 334 321 308 301 294 284 282 282 286 284 288 271 274 285 301 305 302 305 300 300 308 315 318 322 331 329 328 326 324 321 318 316 313 311 310 309 308 308
288 320 331 332 334 336 330 319 307 299 292 289 290 292 287 280 277 275 283 296 299 300 296 283 284 301 305 308 315 324 318 319 319 318 317 316 313 311 308 307 306 306 305
275 305 313 310 319 327 324 318 316 316 303 291 287 290 291 291 290 277 277 289 293 295 283 275 283 294 297 302 305 312 305 308 311 312 313 312 310 307 306 305 304 303 303
272 302 292 296 304 300 294 300 305 311 321 316 312 303 295 291 287 279 277 285 292 287 278 284 286 287 296 298 305 305 298 303 306 308 309 308 306 304 303 303 302 301 301
271 281 277 285 292 289 284 289 296 309 319 311 306 301 293 296 294 293 287 278 281 291 294 296 295 296 297 295 301 297 296 302 301 302 303 303 303 301 301 302 302 301 300
252 242 253 256 271 283 278 279 296 302 297 296 300 299 297 297 296 295 288 281 274 276 283 292 295 300 298 294 298 295 295 298 292 295 298 300 300 300 299 299 299 298 298
234 237 237 242 252 266 280 277 277 280 281 288 289 287 289 291 290 290 286 280 275 272 276 288 293 298 296 297 298 297 296 295 293 293 296 298 299 299 300 299 298 297 296
228 235 234 236 247 260 264 258 263 270 274 279 283 286 287 289 287 287 284 280 278 276 277 287 294 297 297 298 299 297 296 294 291 293 295 296 298 298 299 298 298 297 296
236 234 232 234 239 242 246 252 259 266 270 275 278 278 280 283 283 283 283 280 280 280 278 281 290 294 295 297 299 295 294 292 290 290 293 293 295 298 299 297 297 296 294
239 237 238 240 241 241 244 250 258 266 273 277 278 276 278 276 277 281 280 280 284 285 283 282 287 294 295 299 297 298 297 296 293 291 290 292 294 295 294 294 295 296 295
240 239 242 247 248 247 249 256 262 267 272 274 275 276 277 278 279 281 281 284 285 284 286 286 289 294 296 300 298 299 294 297 292 287 292 291 291 289 291 290 291 293 295
244 240 241 245 248 246 257 261 267 266 265 267 273 276 277 272 277 278 281 285 286 283 284 285 288 289 293 295 296 294 296 298 294 293 294 289 288 286 287 286 291 293 294
243 244 253 254 254 255 260 263 263 265 267 267 271 275 276 278 278 280 283 282 281 278 276 279 283 284 291 296 297 292 288 288 286 297 295 284 284 283 287 287 292 291 293
246 249 252 256 263 268 266 267 271 261 267 269 270 273 275 280 279 285 289 288 286 284 281 277 278 283 290 294 290 287 287 286 283 279 279 280 287 287 289 284 284 288 294
249 253 259 261 263 269 273 275 277 267 266 271 272 273 274 277 284 289 288 287 288 289 289 284 285 288 292 292 292 290 288 288 287 284 278 277 286 294 286 278 280 285 290
256 264 265 264 266 273 280 278 275 266 272 278 278 276 272 275 285 288 281 281 282 287 293 294 289 289 289 288 288 282 281 280 284 283 274 278 285 300 291 277 282 287 288